Location: Fauquembergues
(50.6005°N, 2.0987°E)
Time: 04:36:46
(UTC+00:00)

Cosmos 1666 - Pass Details

Date: 14 July 2020
Orbit: 497 x 521 km, 82.5° (Epoch: 06 August)

Event Time Altitude Azimuth Distance (km) Brightness Sun altitude
Exits shadow 02:47:58 12° 216° (SW) 1,623 4.5 -8.6°
Maximum altitude 02:51:17 40° 286° (WNW) 756 3.3 -8.3°
Drops below altitude 10° 02:54:52 10° 357° (N) 1,723 6.1 -7.9°
Sets 02:57:05 0° 5° (N) 2,610 7.2 -7.7°
